This is the latest recevied weather packets stored in our database for station/object KC5L-7. If no packets are shown the sender has not sent any weather packets the latest 10 day(s).
| Time | Temp. | Humidity | Pressure | Rain* | Wind** | Luminosity | Snow |
|---|---|---|---|---|---|---|---|
| 1777596081 | 23.33° C | 68% | 1007.4 hPa | 0 mm | - | - | - |
| 1777595482 | 23.33° C | 67% | 1007.9 hPa | 0 mm | - | - | - |
| 1777594881 | 23.33° C | 65% | 1007.9 hPa | 0 mm | - | - | - |
| 1777594281 | 23.89° C | 64% | 1007.8 hPa | 0 mm | - | - | - |
| 1777593681 | 23.89° C | 65% | 1007.5 hPa | 0 mm | - | - | - |
| 1777593081 | 23.89° C | 64% | 1007.5 hPa | 0 mm | - | - | - |
| 1777592481 | 23.89° C | 67% | 1007.5 hPa | 0 mm | - | - | - |
| 1777591881 | 23.89° C | 68% | 1007.6 hPa | 0 mm | - | - | - |
| 1777591281 | 23.89° C | 71% | 1007.3 hPa | 0 mm | - | - | - |
| 1777590681 | 23.89° C | 72% | 1007.1 hPa | 0 mm | - | - | - |
| 1777590082 | 23.89° C | 71% | 1007.3 hPa | 0 mm | - | - | - |
| 1777589482 | 23.89° C | 72% | 1007.1 hPa | 0 mm | - | - | - |
| 1777588281 | 23.89° C | 72% | 1006.8 hPa | 0 mm | - | - | - |
| 1777587681 | 23.89° C | 73% | 1006.8 hPa | 0 mm | - | - | - |
| 1777587081 | 23.89° C | 74% | 1007 hPa | 0 mm | - | - | - |
| 1777585881 | 22.78° C | 75% | 1007.3 hPa | 0 mm | - | - | - |
| 1777585283 | 22.78° C | 75% | 1007.6 hPa | 0 mm | - | - | - |
| 1777583481 | 22.22° C | 77% | 1008.2 hPa | 0 mm | - | - | - |
| 1777582281 | 21.67° C | 77% | 1008.5 hPa | 0 mm | - | - | - |
| 1777581681 | 21.67° C | 77% | 1008.6 hPa | 0 mm | - | - | - |
| 1777581081 | 21.67° C | 77% | 1008.8 hPa | 0 mm | - | - | - |
| 1777579882 | 21.67° C | 78% | 1008.9 hPa | 0 mm | - | - | - |
| 1777579282 | 21.67° C | 78% | 1009.1 hPa | 0 mm | - | - | - |
| 1777578083 | 21.67° C | 78% | 1009.4 hPa | 0 mm | - | - | - |
| 1777577483 | 21.67° C | 78% | 1009.5 hPa | 0 mm | - | - | - |
* Rain latest hour (hover to see other rain measurements)
** Current wind speed in m/s (hover to see current wind gust speed)